Retour au catalogue

COSMOS 2251 DEB

ActifLEO
NORAD 34579·DEBRIS·🇷🇺 Russia

Lancé Jun 16, 1993 depuis Plesetsk Cosmodrome

Loading…

Prochains Passages (prochaines 24 heures)

TLE

FraisSource: Space-Track

Époque: Sep 14, 2026, 06:38 UTC

1 34579U 93036VR  26257.27679250  .00000833  00000-0  24039-3 0  9994
2 34579  74.0510  70.5643 0026092  71.3746 349.9010 14.46014053921566

Suivez COSMOS 2251 DEB en temps réel avec AllMySat

Download on the App Store